Location: Aucun
(42.9667°N, 0.1667°W)
Time: 16:57:55
(UTC+00:00)

BREEZE-M DEB (TANK) - Pass Details

Date: 17 February 2020
Orbit: 322 x 11713 km, 49.7° (Epoch: 06 April)

Event Time Altitude Azimuth Distance (km) Brightness Sun altitude
Exits shadow 05:02:45 47° 303° (WNW) 928 4.0 -21.4°
Maximum altitude 05:03:39 57° 348° (NNW) 932 4.3 -21.2°
Drops below altitude 10° 05:12:59 10° 66° (ENE) 4,625 9.0 -19.5°
Sets 05:19:46 0° 70° (ENE) 7,278 10.3 -18.3°
